Time,TemperatureF,DewpointF,PressureIn,WindDirection,WindDirectionDegrees,WindSpeedMPH,WindSpeedGustMPH,Humidity,HourlyPrecipIn,Conditions,Clouds,dailyrainin,SoftwareType,DateUTC
2013-02-07 00:05:00,48.0,46.9,30.07,North,0,0.0,0.0,96,0.00,,,-99.99,Weather View 32 v70,2013-02-07 08:05:00,
2013-02-07 00:20:00,48.0,46.6,30.06,NW,315,0.0,0.0,95,0.00,,,-99.99,Weather View 32 v70,2013-02-07 08:20:00,
2013-02-07 00:30:00,47.0,45.9,30.06,NNE,22,0.0,0.0,96,0.00,,,-99.99,Weather View 32 v70,2013-02-07 08:30:00,
2013-02-07 00:35:00,47.0,45.9,30.06,NNE,22,0.0,0.0,96,0.00,,,-99.99,Weather View 32 v70,2013-02-07 08:35:00,
2013-02-07 00:50:00,46.0,44.9,30.06,North,0,0.0,0.0,96,0.00,,,-99.99,Weather View 32 v70,2013-02-07 08:50:00,
2013-02-07 01:05:00,45.0,44.2,30.05,NNW,338,0.0,0.0,97,0.00,,,-99.99,Weather View 32 v70,2013-02-07 09:05:00,
2013-02-07 01:20:00,45.0,44.2,30.05,NNW,338,0.0,0.0,97,0.00,,,-99.99,Weather View 32 v70,2013-02-07 09:20:00,
2013-02-07 01:30:00,46.0,45.5,30.05,North,0,0.0,0.0,98,0.00,,,-99.99,Weather View 32 v70,2013-02-07 09:30:00,
2013-02-07 01:35:00,46.0,45.5,30.05,North,0,0.0,0.0,98,0.00,,,-99.99,Weather View 32 v70,2013-02-07 09:35:00,
2013-02-07 01:50:00,46.0,45.5,30.06,North,0,0.0,0.0,98,0.00,,,-99.99,Weather View 32 v70,2013-02-07 09:50:00,
2013-02-07 02:05:00,46.0,45.5,30.05,NNW,338,0.0,0.0,98,0.00,,,-99.99,Weather View 32 v70,2013-02-07 10:05:00,
2013-02-07 02:20:00,46.0,45.5,30.05,NW,315,0.0,0.0,98,0.00,,,-99.99,Weather View 32 v70,2013-02-07 10:20:00,
2013-02-07 02:30:00,46.0,45.5,30.05,North,0,0.0,0.0,98,0.00,,,-99.99,Weather View 32 v70,2013-02-07 10:30:00,
2013-02-07 02:35:00,46.0,45.5,30.05,North,0,0.0,0.0,98,0.00,,,-99.99,Weather View 32 v70,2013-02-07 10:35:00,
2013-02-07 02:50:00,44.0,43.2,30.05,NW,315,0.0,0.0,97,0.00,,,-99.99,Weather View 32 v70,2013-02-07 10:50:00,
2013-02-07 03:05:00,43.0,42.5,30.04,NW,315,0.0,0.0,98,0.00,,,-99.99,Weather View 32 v70,2013-02-07 11:05:00,
2013-02-07 03:20:00,44.0,43.7,30.03,NW,315,0.0,0.0,99,0.00,,,-99.99,Weather View 32 v70,2013-02-07 11:20:00,
2013-02-07 03:30:00,44.0,43.7,30.03,NW,315,0.0,0.0,99,0.00,,,-99.99,Weather View 32 v70,2013-02-07 11:30:00,
2013-02-07 03:35:00,44.0,43.7,30.03,NW,315,0.0,0.0,99,0.00,,,-99.99,Weather View 32 v70,2013-02-07 11:35:00,
2013-02-07 03:50:00,44.0,43.7,30.02,North,0,0.0,0.0,99,0.00,,,-99.99,Weather View 32 v70,2013-02-07 11:50:00,
2013-02-07 04:05:00,44.0,44.0,30.02,North,0,0.0,0.0,100,0.00,,,-99.99,Weather View 32 v70,2013-02-07 12:05:00,
2013-02-07 04:20:00,44.0,44.0,30.02,NNW,338,0.0,0.0,100,0.00,,,-99.99,Weather View 32 v70,2013-02-07 12:20:00,
2013-02-07 04:30:00,44.0,44.0,30.02,NNE,22,0.0,0.0,100,0.00,,,-99.99,Weather View 32 v70,2013-02-07 12:30:00,
2013-02-07 04:35:00,44.0,44.0,30.02,NNE,22,0.0,0.0,100,0.00,,,-99.99,Weather View 32 v70,2013-02-07 12:35:00,
2013-02-07 04:50:00,45.0,45.0,30.01,North,0,0.0,0.0,100,0.00,,,-99.99,Weather View 32 v70,2013-02-07 12:50:00,
2013-02-07 05:05:00,46.0,46.0,30.00,North,0,0.0,0.0,100,0.00,,,-99.99,Weather View 32 v70,2013-02-07 13:05:00,
2013-02-07 05:20:00,46.0,46.0,30.01,NNW,338,0.0,0.0,100,0.00,,,-99.99,Weather View 32 v70,2013-02-07 13:20:00,
2013-02-07 05:30:00,47.0,47.0,30.00,North,0,0.0,0.0,100,0.00,,,-99.99,Weather View 32 v70,2013-02-07 13:30:00,
2013-02-07 05:35:00,47.0,47.0,30.00,North,0,0.0,0.0,100,0.00,,,-99.99,Weather View 32 v70,2013-02-07 13:35:00,
2013-02-07 05:50:00,48.0,48.0,29.99,NW,315,0.0,0.0,100,0.00,,,-99.99,Weather View 32 v70,2013-02-07 13:50:00,
2013-02-07 06:05:00,51.0,50.7,29.99,North,0,0.0,8.0,99,0.00,,,-99.99,Weather View 32 v70,2013-02-07 14:05:00,
2013-02-07 06:20:00,51.0,49.3,29.99,NNE,22,0.0,8.0,94,0.00,,,-99.99,Weather View 32 v70,2013-02-07 14:20:00,
2013-02-07 06:30:00,51.0,49.3,29.99,NNE,22,0.0,8.0,94,0.00,,,-99.99,Weather View 32 v70,2013-02-07 14:30:00,
2013-02-07 06:35:00,51.0,49.3,29.99,NNE,22,0.0,8.0,94,0.00,,,-99.99,Weather View 32 v70,2013-02-07 14:35:00,
2013-02-07 06:50:00,51.0,49.6,29.99,NNE,22,0.0,8.0,95,0.00,,,-99.99,Weather View 32 v70,2013-02-07 14:50:00,
2013-02-07 07:05:00,51.0,50.2,29.99,North,0,0.0,5.0,97,0.00,,,-99.99,Weather View 32 v70,2013-02-07 15:05:00,
2013-02-07 07:20:00,51.0,50.2,29.98,North,0,3.0,6.0,97,0.01,,,-99.99,Weather View 32 v70,2013-02-07 15:20:00,
2013-02-07 07:30:00,50.0,49.2,29.98,NNE,22,0.0,7.0,97,0.02,,,-99.99,Weather View 32 v70,2013-02-07 15:30:00,
2013-02-07 07:35:00,50.0,49.2,29.98,NNE,22,0.0,7.0,97,0.02,,,-99.99,Weather View 32 v70,2013-02-07 15:35:00,
2013-02-07 07:50:00,50.0,49.5,29.99,North,0,0.0,9.0,98,0.05,,,-99.99,Weather View 32 v70,2013-02-07 15:50:00,
2013-02-07 08:05:00,50.0,49.2,30.00,NNW,338,0.0,9.0,97,0.09,,,-99.99,Weather View 32 v70,2013-02-07 16:05:00,
2013-02-07 08:20:00,50.0,47.8,30.00,NNE,22,0.0,9.0,92,0.08,,,-99.99,Weather View 32 v70,2013-02-07 16:20:00,
2013-02-07 08:30:00,50.0,48.3,30.01,North,0,0.0,9.0,94,0.07,,,-99.99,Weather View 32 v70,2013-02-07 16:30:00,
2013-02-07 08:35:00,50.0,48.3,30.01,North,0,0.0,9.0,94,0.07,,,-99.99,Weather View 32 v70,2013-02-07 16:35:00,
2013-02-07 08:50:00,50.0,48.6,30.01,NNE,22,0.0,8.0,95,0.04,,,-99.99,Weather View 32 v70,2013-02-07 16:50:00,
2013-02-07 09:05:00,51.0,49.0,30.01,NNE,22,0.0,1.0,93,0.00,,,-99.99,Weather View 32 v70,2013-02-07 17:05:00,
2013-02-07 09:20:00,51.0,48.5,30.01,NNE,22,0.0,1.0,91,0.00,,,-99.99,Weather View 32 v70,2013-02-07 17:20:00,
2013-02-07 09:30:00,52.0,48.9,30.02,North,0,0.0,1.0,89,0.00,,,-99.99,Weather View 32 v70,2013-02-07 17:30:00,
2013-02-07 09:35:00,52.0,48.9,30.02,North,0,0.0,1.0,89,0.00,,,-99.99,Weather View 32 v70,2013-02-07 17:35:00,
2013-02-07 09:50:00,52.0,49.2,30.02,NNE,22,0.0,1.0,90,0.00,,,-99.99,Weather View 32 v70,2013-02-07 17:50:00,
2013-02-07 10:05:00,52.0,48.5,30.02,North,0,0.0,6.0,88,0.00,,,-99.99,Weather View 32 v70,2013-02-07 18:05:00,
2013-02-07 10:20:00,54.0,47.6,30.02,NW,315,0.0,6.0,79,0.00,,,-99.99,Weather View 32 v70,2013-02-07 18:20:00,
2013-02-07 10:35:00,54.0,47.3,30.02,NNW,338,0.0,6.0,78,0.00,,,-99.99,Weather View 32 v70,2013-02-07 18:35:00,
2013-02-07 10:51:00,55.0,47.9,30.02,NNE,22,0.0,6.0,77,0.00,,,-99.99,Weather View 32 v70,2013-02-07 18:51:00,
2013-02-07 11:05:00,56.0,47.1,30.02,North,0,2.0,10.0,72,0.00,,,-99.99,Weather View 32 v70,2013-02-07 19:05:00,
2013-02-07 11:20:00,57.0,46.9,30.02,North,0,10.0,10.0,69,0.00,,,-99.99,Weather View 32 v70,2013-02-07 19:20:00,
2013-02-07 11:35:00,57.0,44.5,30.01,NNW,338,2.0,13.0,63,0.00,,,-99.99,Weather View 32 v70,2013-02-07 19:35:00,
2013-02-07 11:50:00,57.0,44.9,30.01,North,0,0.0,13.0,64,0.00,,,-99.99,Weather View 32 v70,2013-02-07 19:50:00,
2013-02-07 12:05:00,57.0,44.5,30.01,NNE,22,0.0,13.0,63,0.00,,,-99.99,Weather View 32 v70,2013-02-07 20:05:00,
2013-02-07 12:20:00,57.0,43.2,30.00,NNW,338,2.0,14.0,60,0.00,,,-99.99,Weather View 32 v70,2013-02-07 20:20:00,
2013-02-07 12:35:00,58.0,44.2,30.00,NNE,22,4.0,14.0,60,0.00,,,-99.99,Weather View 32 v70,2013-02-07 20:35:00,
2013-02-07 12:50:00,57.0,42.3,30.00,NNW,338,5.0,14.0,58,0.00,,,-99.99,Weather View 32 v70,2013-02-07 20:50:00,
2013-02-07 12:52:00,57.0,42.3,30.00,NNW,338,5.0,14.0,58,0.00,,,-99.99,Weather View 32 v70,2013-02-07 20:52:00,
2013-02-07 13:05:00,57.0,41.4,30.00,NNW,338,0.0,14.0,56,0.00,,,-99.99,Weather View 32 v70,2013-02-07 21:05:00,
2013-02-07 13:20:00,58.0,38.9,30.00,NNW,338,8.0,14.0,49,0.00,,,-99.99,Weather View 32 v70,2013-02-07 21:20:00,
2013-02-07 13:35:00,58.0,38.4,30.00,North,0,3.0,15.0,48,0.00,,,-99.99,Weather View 32 v70,2013-02-07 21:35:00,
2013-02-07 13:50:00,58.0,38.4,30.00,North,0,0.0,15.0,48,0.00,,,-99.99,Weather View 32 v70,2013-02-07 21:50:00,
2013-02-07 13:52:00,58.0,38.4,30.00,North,0,0.0,15.0,48,0.00,,,-99.99,Weather View 32 v70,2013-02-07 21:52:00,
2013-02-07 14:05:00,57.0,35.3,30.00,North,0,0.0,15.0,44,0.00,,,-99.99,Weather View 32 v70,2013-02-07 22:05:00,
2013-02-07 14:20:00,58.0,37.3,30.00,NNW,338,0.0,15.0,46,0.00,,,-99.99,Weather View 32 v70,2013-02-07 22:20:00,
2013-02-07 14:35:00,58.0,37.8,30.00,NNE,22,11.0,15.0,47,0.00,,,-99.99,Weather View 32 v70,2013-02-07 22:35:00,
2013-02-07 14:50:00,57.0,38.0,30.00,NNE,22,6.0,15.0,49,0.00,,,-99.99,Weather View 32 v70,2013-02-07 22:50:00,
2013-02-07 14:53:00,57.0,38.0,30.00,NNE,22,6.0,15.0,49,0.00,,,-99.99,Weather View 32 v70,2013-02-07 22:53:00,
2013-02-07 15:05:00,57.0,39.0,30.01,North,0,6.0,15.0,51,0.00,,,-99.99,Weather View 32 v70,2013-02-07 23:05:00,
2013-02-07 15:20:00,57.0,40.5,30.01,North,0,0.0,15.0,54,0.00,,,-99.99,Weather View 32 v70,2013-02-07 23:20:00,
2013-02-07 15:35:00,57.0,40.5,30.01,North,0,8.0,14.0,54,0.00,,,-99.99,Weather View 32 v70,2013-02-07 23:35:00,
2013-02-07 15:50:00,57.0,41.4,30.02,North,0,5.0,13.0,56,0.00,,,-99.99,Weather View 32 v70,2013-02-07 23:50:00,
2013-02-07 16:05:00,55.0,40.5,30.02,North,0,0.0,12.0,58,0.00,,,-99.99,Weather View 32 v70,2013-02-08 00:05:00,
2013-02-07 16:20:00,55.0,40.5,30.02,NNE,22,0.0,13.0,58,0.00,,,-99.99,Weather View 32 v70,2013-02-08 00:20:00,
2013-02-07 16:35:00,54.0,40.0,30.02,North,0,1.0,13.0,59,0.00,,,-99.99,Weather View 32 v70,2013-02-08 00:35:00,
2013-02-07 16:50:00,54.0,41.2,30.03,North,0,0.0,13.0,62,0.00,,,-99.99,Weather View 32 v70,2013-02-08 00:50:00,
2013-02-07 17:05:00,54.0,41.7,30.03,North,0,0.0,13.0,63,0.00,,,-99.99,Weather View 32 v70,2013-02-08 01:05:00,
2013-02-07 17:20:00,53.0,41.5,30.03,NNW,338,0.0,13.0,65,0.00,,,-99.99,Weather View 32 v70,2013-02-08 01:20:00,
2013-02-07 17:35:00,53.0,41.9,30.03,NW,315,0.0,10.0,66,0.00,,,-99.99,Weather View 32 v70,2013-02-08 01:35:00,
2013-02-07 17:45:00,52.0,41.7,30.03,NNE,22,0.0,10.0,68,0.00,,,-99.99,Weather View 32 v70,2013-02-08 01:45:00,
2013-02-07 17:50:00,52.0,41.7,30.03,NNE,22,0.0,10.0,68,0.00,,,-99.99,Weather View 32 v70,2013-02-08 01:50:00,
2013-02-07 18:05:00,52.0,42.9,30.03,North,0,0.0,5.0,71,0.00,,,-99.99,Weather View 32 v70,2013-02-08 02:05:00,
2013-02-07 18:20:00,51.0,42.6,30.03,NNW,338,0.0,0.0,73,0.00,,,-99.99,Weather View 32 v70,2013-02-08 02:20:00,
2013-02-07 18:35:00,50.0,42.0,30.02,NNE,22,0.0,0.0,74,0.00,,,-99.99,Weather View 32 v70,2013-02-08 02:35:00,
2013-02-07 18:45:00,51.0,42.6,30.02,NNE,22,0.0,0.0,73,0.00,,,-99.99,Weather View 32 v70,2013-02-08 02:45:00,
2013-02-07 18:50:00,51.0,42.6,30.02,NNE,22,0.0,0.0,73,0.00,,,-99.99,Weather View 32 v70,2013-02-08 02:50:00,
2013-02-07 19:05:00,50.0,44.4,30.02,North,0,0.0,3.0,81,0.00,,,-99.99,Weather View 32 v70,2013-02-08 03:05:00,
2013-02-07 19:20:00,49.0,44.1,30.01,North,0,0.0,3.0,83,0.00,,,-99.99,Weather View 32 v70,2013-02-08 03:20:00,
2013-02-07 19:35:00,48.0,44.6,30.01,North,0,0.0,3.0,88,0.01,,,-99.99,Weather View 32 v70,2013-02-08 03:35:00,
2013-02-07 19:45:00,48.0,44.6,30.00,NNE,22,0.0,3.0,88,0.01,,,-99.99,Weather View 32 v70,2013-02-08 03:45:00,
2013-02-07 19:50:00,48.0,44.6,30.00,NNE,22,0.0,3.0,88,0.01,,,-99.99,Weather View 32 v70,2013-02-08 03:50:00,
2013-02-07 20:05:00,48.0,44.0,30.00,North,0,0.0,3.0,86,0.01,,,-99.99,Weather View 32 v70,2013-02-08 04:05:00,
2013-02-07 20:20:00,48.0,42.8,29.99,North,0,0.0,0.0,82,0.01,,,-99.99,Weather View 32 v70,2013-02-08 04:20:00,
2013-02-07 20:35:00,49.0,43.4,29.99,NNE,22,0.0,0.0,81,0.00,,,-99.99,Weather View 32 v70,2013-02-08 04:35:00,
2013-02-07 20:45:00,48.0,43.1,29.98,North,0,0.0,0.0,83,0.00,,,-99.99,Weather View 32 v70,2013-02-08 04:45:00,
2013-02-07 20:50:00,48.0,43.1,29.98,North,0,0.0,0.0,83,0.00,,,-99.99,Weather View 32 v70,2013-02-08 04:50:00,
2013-02-07 21:05:00,47.0,43.0,29.98,East,90,0.0,0.0,86,0.00,,,-99.99,Weather View 32 v70,2013-02-08 05:05:00,
2013-02-07 21:20:00,47.0,43.6,29.97,ENE,68,0.0,0.0,88,0.00,,,-99.99,Weather View 32 v70,2013-02-08 05:20:00,
2013-02-07 21:35:00,45.0,41.9,29.97,NNE,22,0.0,0.0,89,0.00,,,-99.99,Weather View 32 v70,2013-02-08 05:35:00,
2013-02-07 21:45:00,45.0,42.8,29.97,NNE,22,0.0,0.0,92,0.00,,,-99.99,Weather View 32 v70,2013-02-08 05:45:00,
2013-02-07 21:50:00,45.0,42.8,29.97,NNE,22,0.0,0.0,92,0.00,,,-99.99,Weather View 32 v70,2013-02-08 05:50:00,
2013-02-07 22:05:00,45.0,43.4,29.96,North,0,0.0,0.0,94,0.00,,,-99.99,Weather View 32 v70,2013-02-08 06:05:00,
2013-02-07 22:20:00,46.0,43.5,29.95,North,0,0.0,0.0,91,0.00,,,-99.99,Weather View 32 v70,2013-02-08 06:20:00,
2013-02-07 22:35:00,43.0,40.3,29.95,NNE,22,0.0,0.0,90,0.00,,,-99.99,Weather View 32 v70,2013-02-08 06:35:00,
2013-02-07 22:45:00,44.0,42.7,29.95,NNW,338,0.0,0.0,95,0.00,,,-99.99,Weather View 32 v70,2013-02-08 06:45:00,
2013-02-07 22:50:00,44.0,42.7,29.95,NNW,338,0.0,0.0,95,0.00,,,-99.99,Weather View 32 v70,2013-02-08 06:50:00,
2013-02-07 23:05:00,44.0,42.7,29.95,NNW,338,0.0,0.0,95,0.00,,,-99.99,Weather View 32 v70,2013-02-08 07:05:00,
2013-02-07 23:20:00,42.0,40.9,29.94,NNE,22,0.0,0.0,96,0.00,,,-99.99,Weather View 32 v70,2013-02-08 07:20:00,
2013-02-07 23:35:00,42.0,41.2,29.93,ESE,112,0.0,0.0,97,0.00,,,-99.99,Weather View 32 v70,2013-02-08 07:35:00,
2013-02-07 23:45:00,43.0,42.2,29.93,East,90,0.0,0.0,97,0.00,,,-99.99,Weather View 32 v70,2013-02-08 07:45:00,
2013-02-07 23:50:00,43.0,42.2,29.93,East,90,0.0,0.0,97,0.00,,,-99.99,Weather View 32 v70,2013-02-08 07:50:00,